Location: Manchester NH
(43.0000°N, 71.5000°W)
Time: 18:05:41
(UTC-04:00)

Vanguard 1 Rocket - All Passes

Search period start: 24 May 2022 00:00
Search period end: 03 June 2022 00:00
Orbit: 652 x 4224 km, 34.3° (Epoch: 23 May)

Date Brightness Start Highest point End Pass type
(mag) Time Alt. Az. Time Alt. Az. Time Alt. Az.
24 May - 05:24:48 10° SSW 05:31:51 28° SE 05:43:26 10° E daylight
24 May - 07:46:39 10° WSW 07:57:18 58° SSE 08:17:36 10° E daylight
24 May - 10:11:21 10° W 10:26:17 62° S 10:50:55 10° ESE daylight
24 May - 12:38:30 10° W 12:56:41 42° SSW 13:19:44 10° SSE daylight
24 May - 15:12:52 10° W 15:25:35 17° SW 15:38:41 10° SSW daylight
25 May - 04:17:13 10° SSE 04:21:18 14° SE 04:26:36 10° E visible
25 May - 06:36:25 10° SW 06:45:08 47° SSE 07:01:36 10° E daylight
25 May - 09:00:03 10° WSW 09:12:34 63° S 09:35:26 10° ESE daylight
25 May - 11:25:52 10° W 11:42:28 51° SSW 12:06:42 10° SE daylight
25 May - 13:55:39 10° W 14:12:13 27° SW 14:30:57 10° S daylight
26 May - 05:26:48 10° SSW 05:33:48 33° SE 05:45:50 10° E daylight
26 May - 07:49:14 10° WSW 07:59:34 60° S 08:19:30 10° E daylight
26 May - 10:14:00 10° W 10:28:25 57° SSW 10:52:23 10° SE daylight
26 May - 12:41:25 10° W 12:58:24 36° SW 13:20:11 10° SSE daylight
26 May - 15:20:33 10° WSW 15:27:02 12° SW 15:33:42 10° SW daylight
27 May - 04:18:20 10° S 04:23:09 18° SE 04:29:59 10° E visible
27 May - 06:38:52 10° SW 06:47:20 51° SSE 07:03:38 10° E daylight
27 May - 09:02:42 10° W 09:14:49 61° S 09:37:07 10° ESE daylight
27 May - 11:28:37 10° W 11:44:25 45° SSW 12:07:36 10° SE daylight
27 May - 13:59:40 10° W 14:13:48 21° SW 14:29:50 10° S daylight
28 May - 05:29:02 10° SW 05:35:53 37° SSE 05:48:07 10° E daylight
28 May - 07:51:52 10° WSW 08:01:53 60° S 08:21:21 10° ESE daylight
28 May - 10:16:43 10° W 10:30:33 52° SSW 10:53:38 10° SE daylight
28 May - 12:44:36 10° W 13:00:10 30° SW 13:20:08 10° SSE daylight
29 May - 04:20:00 10° S 04:25:07 23° SE 04:32:51 10° E visible
29 May - 06:41:26 10° WSW 06:49:39 54° SSE 07:05:38 10° E daylight
29 May - 09:05:25 10° W 09:17:06 57° S 09:38:39 10° ESE daylight
29 May - 11:31:31 10° W 11:46:23 39° SSW 12:08:09 10° SSE daylight
29 May - 14:04:59 10° WSW 14:15:28 15° SW 14:27:08 10° SSW daylight
30 May - 05:31:25 10° SW 05:38:07 42° SSE 05:50:20 10° E daylight
30 May - 07:54:33 10° WSW 08:04:16 58° S 08:23:08 10° ESE daylight
30 May - 10:19:30 10° W 10:32:43 46° SSW 10:54:38 10° SE daylight
30 May - 12:48:16 10° W 13:02:00 24° SW 13:19:23 10° S daylight
31 May - 04:22:00 10° SSW 04:27:14 27° SE 04:35:29 10° E visible
31 May - 06:44:04 10° WSW 06:52:02 55° S 07:07:37 10° E daylight
31 May - 09:08:09 10° W 09:19:25 52° SSW 09:40:02 10° SE daylight
31 May - 11:34:39 10° W 11:48:24 32° SSW 12:08:16 10° SSE daylight
01 Jun - 03:13:58 10° SSE 03:16:48 14° SE 03:20:17 10° ESE visible
01 Jun - 05:33:55 10° SW 05:40:27 45° SSE 05:52:31 10° E daylight
01 Jun - 07:57:17 10° W 08:06:40 55° S 08:24:49 10° ESE daylight
01 Jun - 10:22:25 10° W 10:34:55 40° SSW 10:55:20 10° SE daylight
01 Jun - 12:52:47 10° WSW 13:03:56 18° SW 13:17:32 10° S daylight
02 Jun - 04:24:14 10° SSW 04:29:28 31° SSE 04:37:58 10° E visible
02 Jun - 06:46:45 10° WSW 06:54:29 54° S 07:09:33 10° ESE daylight
02 Jun - 09:10:58 10° W 09:21:46 46° SSW 09:41:11 10° SE daylight
02 Jun - 11:38:08 10° W 11:50:29 26° SW 12:07:47 10° SSE daylight
